Showing default

SUPERBIRD 8, 43271

Orbit data source: Space-Track

SUPERBIRD 8, 43271 is a payload satellite owned by DSN Corp. (JP) in GEO that was launched on Thu, 05 Apr 2018 UTC via an ARIANE 5ECA launch vehicle from the French Guiana (FRGUI). Payload-class satellites include a variety of spacecraft equipped with specific instruments for various scientific and technological missions. These include communications satellites like Starlink; space stations such as the ISS; scientific satellites like the Hubble; Earth observation satellites from companies like Planet Labs, Umbra, and HawkEye 360; GPS; miniature CubeSats for education and research; and military/defense satellites.

Not visible in the next 10 days
Identifier
43271, 2018-033A
Orbit
GEO
Country
Flag of JPJP / JPN
Related business
Manufacturer
MELCO
Mission
Operational Defense Communications
Bus & Motor
DS-2000, R-4D
Mass
5,000 kg wet, 2,500 kg dry
Launch date (UTC)
2018-04-05 (8 years ago)
Launch vehicle
ARIANE 5ECA
Launch site
French Guiana (FRGUI)
Object type
Payload
Rocket body
Debris
Shape & HBR
Box + 2 Pan, 15.0 m
Radar Cross Section
67.841 m², Large (>1 m²)

Expand to show TLE details & history
Last TLE update: 2 days ago

TLE from 2 days ago
0 SUPERBIRD 8
1 43271U 18033A   26171.37822667 -.00000097  00000-0  00000+0 0  9996
2 43271   0.0262 290.7153 0001175 169.2877 106.7514  1.00270639 30094
Epoch: 2026-06-20T09:04Z
TLE epoch observation values (Epoch: 2026-06-20T09:04:38.784Z)
Latitude
-0.03129°
Longitude
162.02428°
Altitude
35,787.853 km
Speed
3.075 km/s
True Right ascension
13h 47m 07s
True Declination
0° 01' 53"
Sunlit
Object was in daylight at epoch
Visualization orbit readout
Latitude
Unknown
Longitude
Unknown
Altitude
Unknown
Speed
Unknown
Apparent Right ascension
Unknown
Apparent Declination
Unknown
Sunlit
N/A
Visualization observer readout
Local Sidereal Time
21:25:07
Azimuth
Unknown
Elevation
Unknown
Doppler factor
Unknown
Orbital elements
Apogee altitude
35,792.941 km
Perigee altitude
35,783.032 km
Semi-major axis
42,166.124 km
Eccentricity
0.00012
Inclination
0.0262°
RAAN
290.7153°
Arg. of periapsis
169.2877°
True anomaly
106.76429°
Mean anomaly
106.7514°
Eccentric anomaly
106.75785°
Mean motion
0.25067 °/min
Orbital period
1,436.17 mins
BSTAR
0
Loading maneuver chart data...
Computing Atmospheric mass density...
Loading historical data...
Loading historical data...
Loading historical data...
Loading historical data...
Loading historical data...
Loading historical data...
Loading historical data...
Other satellites on launch #33 in the year 2018 (2018-04-05 UTC)

Documentation

Showing up to 5 results
|